Contact Us - Flying Club related Information

Contact

Contact-image

Enquiries for all Trim Flying Club related items - Intro Flights, Membership, PPL, Vouchers, Birthdays

Address:
Trim Flying Club
Dunganny
Trim Co Meath
Ireland

As Trim Flying Club is a part time organisation, there may not always be someone on-site at the airfield.

We will deal with flying related queries only.

Attention: Do not contact us if you are a third party enquiring about search engine optimisation.

Mobile: MOBILE - 086 826 0850 Brian / 087 397 9047 Vincent

http://www.trimflyingclub.ie

Contact Form

Send an email. All fields with an * are required.

Other information

Other information:

Please us this Contact Form to enquire about Intro Flights, Club Membership, Learning to Fly and all Club related material at Trim Flying Club

Trim Flying Club goes to the Aran Islands

Learn to fly at Trim Flying Club

Rainfall Radar Now

Atlantic Charts Pressure - Today

Atlantic Charts Rainfall - Today

 
 

Atlantic Charts Pressure - Tomorrow

Sunrise Sunset

Click for Dublin, Ireland Forecast

Aviation WX Dublin EIDW

[source: ADDS]
METAR
EIDW 232330Z 17005KT 9999 FEW022 05/04 Q1015 NOSIG =
TAF
TAF EIDW 232300Z 2400/2424 16006KT 9999 FEW020 SCT040 TEMPO 2400/2407 VRB03KT PROB30 TEMPO 2403/2407 3000 BR SCT007 BECMG 2410/2413 14013KT BECMG 2418/2420 11006KT BECMG 2420/2423 VRB03KT PROB40 TEMPO 2422/2424 3000 BR BKN005 =